Weather History for Phoenix, AZ

Change the Weather History Date:

Friday, November 11, 2011

  Actual Average Record
Temperature  
Mean Temperature 66 °F 66 °F  
Max Temperature 73 °F 78 °F 91 °F (1934)
Min Temperature 59 °F 54 °F 35 °F (1935)
Degree Days  
Heating Degree Days 0 2  
Month to date heating degree days 39 14  
Since 1 July heating degree days 39 20  
Cooling Degree Days 1 3  
Month to date cooling degree days 28 48  
Year to date cooling degree days 4892 4584  
Growing Degree Days 16 (Base 50)    
Moisture  
Dew Point 28 °F    
Average Humidity 25    
Maximum Humidity 33    
Minimum Humidity 16    
Precipitation  
Precipitation 0.00 in 0.01 in 1.41 in (1931)
Month to date precipitation 0.71 0.21  
Year to date precipitation 3.46 6.71  
Snow  
Snow 0.00 in - - ()
Month to date snowfall 0.0  
Year to date snowfall 0.0  
Since 1 July snowfall 0.0  
Snow Depth 0.00 in    
Sea Level Pressure  
Sea Level Pressure 29.93 in    
Wind  
Wind Speed 5 mph (East)    
Max Wind Speed 12 mph    
Max Gust Speed 14 mph    
Visibility 10 miles    
Events      
T = Trace of Precipitation, MM = Missing Value Source: NWS Daily Summary

Daily Weather History Graph

Daily Weather History Graph

Search for Another Location

Airport:

Trip Planner

Search our weather history database for the weather conditions in past years. The results will help you decide how hot, cold, wet, or windy it might be!

Date:

Astronomy

Nov. 11, 2011 Rise Set
Actual Time 6:55 AM MST 5:28 PM MST
Civil Twilight 6:29 AM MST 5:54 PM MST
Nautical Twilight 5:59 AM MST 6:24 PM MST
Astronomical Twilight 5:30 AM MST 6:53 PM MST
Moon 6:04 PM MST (11/11) 7:43 AM MST (11/11)
Length of Visible Light 11h 24m
Length of Day
10h 32m
Full, 99% of the Moon is Illuminated
Nov 11
Full
Nov 18
Last Quarter
Nov 24
New
Dec 2
First Quarter
Dec 10
Full

Hourly Weather History & Observations

Time (MST) Temp. Dew Point Humidity Pressure Visibility Wind Dir Wind Speed Gust Speed Precip Events Conditions
12:51 AM 63.0 °F 27.0 °F 26% 30.01 in 10.0 mi ESE 4.6 mph - N/A   Overcast
1:51 AM 62.1 °F 28.0 °F 28% 30.00 in 10.0 mi Calm Calm - N/A   Overcast
2:51 AM 59.0 °F 30.9 °F 35% 29.99 in 10.0 mi ESE 3.5 mph - N/A   Overcast
3:51 AM 60.1 °F 28.9 °F 31% 29.97 in 10.0 mi East 3.5 mph - N/A   Overcast
4:51 AM 60.8 °F 26.6 °F 27% 29.98 in 10.0 mi Calm Calm - N/A   Overcast
5:51 AM 60.1 °F 28.0 °F 30% 29.94 in 10.0 mi SE 3.5 mph - N/A   Overcast
6:51 AM 60.1 °F 28.9 °F 31% 29.95 in 10.0 mi SE 3.5 mph - N/A   Overcast
7:51 AM 61.0 °F 28.0 °F 29% 29.96 in 10.0 mi ESE 3.5 mph - N/A   Overcast
8:51 AM 62.1 °F 28.0 °F 28% 29.97 in 10.0 mi East 5.8 mph - N/A   Overcast
9:51 AM 64.0 °F 28.9 °F 27% 29.99 in 10.0 mi East 5.8 mph - N/A   Overcast
10:51 AM 66.9 °F 28.0 °F 23% 29.98 in 10.0 mi ESE 9.2 mph - N/A   Overcast
11:51 AM 68.0 °F 26.1 °F 21% 29.97 in 10.0 mi ESE 6.9 mph - N/A   Overcast
12:51 PM 70.0 °F 24.1 °F 18% 29.95 in 10.0 mi East 6.9 mph - N/A   Overcast
1:51 PM 71.6 °F 23.0 °F 16% 29.96 in 10.0 mi East 4.6 mph - N/A   Overcast
2:51 PM 72.0 °F 23.0 °F 16% 29.90 in 10.0 mi Variable 4.6 mph - N/A   Overcast
3:51 PM 72.0 °F 23.0 °F 16% 29.87 in 10.0 mi East 9.2 mph - N/A   Overcast
4:51 PM 71.1 °F 26.1 °F 19% 29.87 in 10.0 mi East 6.9 mph - N/A   Overcast
5:51 PM 69.1 °F 28.0 °F 22% 29.86 in 10.0 mi ENE 4.6 mph - N/A   Overcast
6:51 PM 66.9 °F 28.9 °F 24% 29.87 in 10.0 mi East 9.2 mph - N/A   Overcast
7:51 PM 66.0 °F 28.9 °F 25% 29.87 in 10.0 mi East 6.9 mph - N/A   Overcast
8:51 PM 64.9 °F 28.9 °F 26% 29.87 in 10.0 mi East 8.1 mph - N/A   Overcast
9:51 PM 64.0 °F 30.9 °F 29% 29.87 in 10.0 mi East 3.5 mph - N/A   Overcast
10:51 PM 63.0 °F 30.9 °F 30% 29.87 in 10.0 mi East 3.5 mph - N/A   Overcast
11:51 PM 64.0 °F 28.9 °F 27% 29.87 in 10.0 mi ESE 3.5 mph - N/A   Overcast